Погода в Нараянгандже

Бангладеш     23°38′56″N   90°29′33″E
темп.,
°C
ветер,
м/с
пор.,
м/с
влажн.,
%
обл.,
%
осадки,
мм/ч
давл.,
гПа
погр.,
м
17 октября, вс
вс1700:00+29ююз3474100 0.2 1007192
03:00+28ссз0176100 0.0 1005124
06:00+27ссв228090 0.0 1006145
09:00+31всв236724 0.0 1008590
12:00+34всв345327 0.0 10061521
15:00+34юв545294 0.1 10031728
18:00+30ююв4668100 0.9 1005335
21:00+29ю236999 0.4 1007190
18 октября, пн
пн1800:00+29ю127393 0.4 1007200
03:00+28в2377100 0.1 1006252
06:00+26юв4882100 1.6 1007467
09:00+27ююв71479100 0.0 1010902
12:00+28ююв81473100 0.0 10081136
15:00+28юв71572100 0.3 10061342
18:00+26ююв51386100 2.8 1007839
21:00+25ююв51191100 3.0 1010788
19 октября, вт
вт1900:00+24юв4897100 19.0 1009515
03:00+24в4998100 27.1 1007410
06:00+24юв91395100 32.8 1008677
09:00+24вюв61197100 28.8 1009574
12:00+24юв5898100 43.9 1008407
15:00+24юв81397100 65.8 1007699
18:00+23юв3999100 120.1 1007498
21:00+24юв4999100 49.6 1009549
20 октября, ср
ср2000:00+24св1196100 63.1 100999
03:00+24ююв2298100 7.3 1008178
06:00+24ююв2396100 9.8 1010197
09:00+24юв3497100 3.6 1012252
12:00+25юв4694100 5.6 1010341
15:00+26юв458899 0.7 1008471
18:00+25юв4797100 6.9 1009287
21:00+24вюв3597100 2.2 1010180
21 октября, чт
чт2100:00+24ю2597100 6.0 1009184
03:00+24юв2496100 2.4 1008149
06:00+24ююв369799 3.8 1008209
09:00+28юз488479 4.6 1009531
12:00+28зюз4683100 11.0 1008558
15:00+26зюз369099 2.4 1006349
18:00+26ююз248911 3.5 100780
21:00+25юз249342 2.6 1008108